Volver al catálogo

BREEZE-M DEB

TANK

ActivoHEO
NORAD 37260·DEBRIS·🇷🇺 Russia

Lanzado Dec 26, 2010 desde Baikonur Cosmodrome

Loading…

Próximos Pases (próximas 24 horas)

TLE

ActualizadoSource: Space-Track

Época: Sep 12, 2026, 16:37 UTC

1 37260U 10069C   26255.69239007  .00001190  00000-0  33995-3 0  9993
2 37260  49.5939 314.6035 4939868 104.4466 313.4153  5.68207881316143

Sigue BREEZE-M DEB en tiempo real con AllMySat

Download on the App Store